Total_Precipitation_Accumulation
0.05 0.11 0.17 0.20 0.16 0.13 0.11 0.11 0.15 0.21 0.34 0.40 0.47 0.49 0.43 0.43 0.46 0.45 0.50 0.50 0.47 0.50 0.43 0.41 0.41 0.39 0.39 0.44 0.48 0.48 0.57 0.66 0.74 0.85 0.91 1.00 1.15 1.25 1.34 1.38 1.31 1.38 1.44 1.43
0.07 0.11 0.13 0.14 0.17 0.12 0.08 0.08 0.14 0.23 0.35 0.43 0.43 0.52 0.51 0.45 0.41 0.46 0.54 0.55 0.62 0.62 0.58 0.56 0.54 0.50 0.50 0.55 0.60 0.69 0.79 0.84 0.88 0.95 1.03 1.08 1.15 1.19 1.31 1.37 1.42 1.50 1.56 1.58
0.15 0.15 0.16 0.17 0.16 0.12 0.11 0.14 0.18 0.22 0.32 0.43 0.50 0.60 0.65 0.65 0.54 0.53 0.64 0.67 0.76 0.82 0.78 0.74 0.68 0.63 0.64 0.68 0.77 0.86 0.95 1.08 1.13 1.15 1.24 1.26 1.28 1.27 1.31 1.45 1.55 1.58 1.56 1.56
0.21 0.24 0.29 0.21 0.18 0.16 0.16 0.17 0.20 0.31 0.42 0.50 0.58 0.62 0.71 0.80 0.73 0.63 0.60 0.66 0.78 0.88 0.87 0.79 0.77 0.80 0.90 0.94 1.00 1.12 1.20 1.33 1.46 1.50 1.57 1.63 1.69 1.67 1.68 1.73 1.81 1.76 1.65 1.65
0.32 0.39 0.35 0.28 0.24 0.23 0.25 0.33 0.34 0.45 0.64 0.72 0.68 0.79 0.94 0.86 0.72 0.69 0.69 0.72 0.89 0.90 0.87 0.86 0.97 1.02 1.05 1.10 1.18 1.36 1.53 1.64 1.73 1.81 1.85 1.86 1.87 1.95 2.01 2.11 2.14 2.06 1.99 2.02
0.40 0.45 0.49 0.45 0.39 0.37 0.46 0.84 0.72 0.71 0.72 0.72 0.74 0.99 1.03 0.76 0.65 0.65 0.69 0.82 0.93 0.99 0.98 1.06 1.29 1.34 1.38 1.42 1.49 1.56 1.63 1.75 1.92 2.04 2.10 2.08 2.10 2.22 2.38 2.50 2.47 2.43 2.45 2.47
0.47 0.51 0.50 0.50 0.47 0.52 0.95 1.30 1.05 0.94 0.87 0.89 1.00 1.01 0.98 0.83 0.70 0.68 0.70 0.79 0.90 0.95 1.02 1.09 1.27 1.42 1.65 1.80 1.84 1.84 1.89 1.92 1.98 2.09 2.21 2.25 2.32 2.39 2.54 2.64 2.62 2.58 2.51 2.45
0.73 0.83 0.87 0.58 0.61 0.93 1.19 1.03 1.08 1.17 1.18 1.17 1.15 0.98 0.86 0.78 0.76 0.72 0.70 0.72 0.82 0.99 1.09 1.20 1.37 1.60 1.79 1.94 2.07 2.14 2.13 2.23 2.24 2.26 2.19 2.16 2.35 2.48 2.60 2.72 2.69 2.63 2.64 2.52
1.00 1.10 0.97 0.74 0.83 0.88 0.85 0.98 1.06 1.11 1.23 1.29 1.27 1.27 1.08 0.97 0.94 0.87 0.82 0.81 0.83 0.95 1.10 1.19 1.29 1.52 1.88 1.96 1.97 2.00 2.08 2.13 2.21 2.24 2.25 2.27 2.40 2.56 2.69 2.73 2.64 2.51 2.49 2.46
1.15 1.19 1.06 0.99 1.00 1.02 0.99 1.06 1.09 1.12 1.19 1.25 1.23 1.30 1.21 1.06 0.93 0.87 0.85 0.86 0.90 0.96 1.07 1.16 1.12 1.24 1.44 1.63 1.73 1.74 1.75 1.78 1.80 1.92 2.04 2.20 2.38 2.43 2.51 2.58 2.58 2.56 2.50 2.42
1.38 1.51 1.47 1.36 1.32 1.26 1.17 1.26 1.37 1.32 1.29 1.32 1.19 1.15 1.14 0.99 0.87 0.80 0.78 0.77 0.84 0.97 0.96 1.00 1.07 1.08 1.12 1.19 1.37 1.52 1.56 1.57 1.64 1.75 1.85 2.00 2.22 2.36 2.31 2.32 2.47 2.38 2.24 2.13
1.45 1.49 1.62 1.65 1.47 1.35 1.26 1.35 1.40 1.35 1.27 1.23 1.15 1.12 1.01 0.88 0.80 0.78 0.76 0.76 0.81 0.88 0.88 0.86 0.94 0.97 1.00 1.13 1.32 1.43 1.41 1.41 1.44 1.47 1.57 1.69 1.85 1.98 1.95 1.71 1.74 1.67 1.52 1.39
1.29 1.38 1.54 1.65 1.52 1.44 1.51 1.54 1.50 1.43 1.30 1.23 1.12 1.05 0.97 0.88 0.79 0.79 0.82 0.85 0.91 0.93 0.94 0.95 0.94 0.98 1.10 1.29 1.45 1.55 1.46 1.38 1.36 1.37 1.45 1.49 1.54 1.61 1.65 1.52 1.35 1.28 1.15 1.00
1.45 1.60 1.88 2.00 1.80 1.60 1.62 1.56 1.50 1.56 1.50 1.40 1.21 1.07 0.94 0.90 0.85 0.85 0.95 1.05 1.10 1.09 1.07 1.07 1.08 1.05 1.08 1.22 1.38 1.62 1.71 1.62 1.47 1.40 1.40 1.38 1.39 1.43 1.52 1.55 1.46 1.28 1.07 0.84
1.60 1.74 1.87 1.92 1.76 1.63 1.61 1.61 1.54 1.51 1.43 1.37 1.30 1.13 1.00 0.94 0.92 0.93 0.96 1.04 1.13 1.14 1.14 1.07 1.05 1.05 1.08 1.17 1.21 1.34 1.55 1.56 1.45 1.39 1.40 1.41 1.42 1.47 1.54 1.54 1.58 1.52 1.25 0.94
1.66 1.71 1.81 1.76 1.67 1.60 1.53 1.59 1.59 1.44 1.25 1.24 1.26 1.18 1.12 0.99 0.95 0.95 1.00 1.15 1.33 1.34 1.21 1.14 1.10 1.06 1.05 1.08 1.10 1.17 1.26 1.29 1.23 1.24 1.25 1.31 1.36 1.38 1.40 1.47 1.49 1.47 1.32 1.05
1.52 1.65 1.79 1.80 1.69 1.53 1.49 1.57 1.52 1.39 1.20 1.08 1.15 1.14 1.10 1.08 1.09 1.11 1.16 1.24 1.39 1.41 1.28 1.21 1.16 1.05 0.98 1.00 1.07 1.08 1.09 1.05 0.98 1.02 1.13 1.20 1.25 1.27 1.26 1.27 1.29 1.29 1.21 0.93
1.24 1.38 1.46 1.49 1.52 1.44 1.38 1.38 1.34 1.28 1.22 1.12 1.13 1.14 1.10 1.16 1.26 1.35 1.40 1.40 1.38 1.28 1.18 1.12 1.05 1.01 0.94 0.91 0.98 1.03 1.09 1.03 0.87 0.88 1.03 1.09 1.09 1.17 1.15 1.12 1.12 1.15 1.06 0.83
1.17 1.24 1.22 1.23 1.21 1.20 1.21 1.22 1.13 1.07 1.08 1.11 1.14 1.18 1.16 1.19 1.30 1.37 1.36 1.45 1.50 1.37 1.13 0.95 0.86 0.75 0.72 0.68 0.69 0.81 0.93 0.96 0.85 0.83 0.93 0.92 0.96 1.14 1.17 1.15 1.14 1.12 0.98 0.87
1.09 1.16 1.21 1.16 1.06 1.08 1.07 1.09 1.07 1.04 1.03 1.10 1.17 1.16 1.17 1.21 1.28 1.37 1.34 1.35 1.41 1.36 1.13 0.91 0.70 0.59 0.53 0.51 0.54 0.59 0.71 0.81 0.75 0.70 0.75 0.85 0.95 1.10 1.19 1.16 1.16 1.16 1.04 0.93
1.02 1.07 1.07 1.06 1.02 1.01 1.00 0.94 0.95 1.03 1.04 1.06 1.15 1.20 1.28 1.26 1.21 1.27 1.39 1.40 1.30 1.26 1.18 1.05 0.80 0.65 0.52 0.51 0.51 0.55 0.66 0.75 0.69 0.61 0.63 0.73 0.89 1.04 1.12 1.10 1.08 1.05 0.96 0.88
1.02 1.00 0.93 0.93 0.93 0.94 0.96 0.94 0.87 0.83 0.86 0.98 1.06 1.13 1.24 1.23 1.17 1.16 1.17 1.29 1.26 1.31 1.17 1.03 0.88 0.75 0.63 0.53 0.47 0.52 0.63 0.70 0.68 0.60 0.58 0.67 0.83 0.94 1.02 1.06 1.07 1.03 0.97 0.94
1.12 1.04 0.96 0.94 0.88 0.86 0.86 0.87 0.82 0.78 0.90 1.07 1.10 1.15 1.21 1.15 1.15 1.26 1.21 1.04 1.03 1.14 0.99 0.89 0.91 0.81 0.67 0.57 0.51 0.56 0.68 0.75 0.74 0.64 0.62 0.70 0.78 0.82 0.89 0.92 0.95 0.98 0.99 0.92
1.11 0.99 0.96 0.99 0.92 0.89 0.96 0.87 0.79 0.84 0.95 1.09 1.07 1.08 1.11 1.12 1.11 1.07 1.06 1.03 0.99 1.04 0.89 0.83 0.79 0.73 0.69 0.66 0.67 0.70 0.75 0.77 0.75 0.66 0.63 0.67 0.68 0.71 0.78 0.87 0.95 1.00 0.97 0.90
1.04 0.96 0.92 1.01 1.03 0.98 1.03 0.93 0.87 0.94 0.98 1.05 1.00 1.00 1.04 1.04 1.15 1.16 1.04 0.94 0.98 1.01 0.92 0.87 0.79 0.73 0.68 0.74 0.82 0.82 0.80 0.79 0.77 0.71 0.69 0.67 0.67 0.70 0.78 0.92 1.02 1.03 0.95 0.93
1.04 1.03 0.98 1.00 0.98 0.93 0.93 0.88 0.85 0.90 1.06 1.22 1.11 1.00 1.07 1.05 1.01 1.05 1.09 1.03 1.00 1.03 0.98 0.91 0.83 0.79 0.77 0.86 0.93 0.92 0.86 0.83 0.81 0.80 0.81 0.81 0.82 0.85 0.93 1.04 1.07 0.99 0.89 0.84
0.97 0.92 0.88 0.87 0.90 0.93 0.94 0.89 0.84 0.89 1.03 1.27 1.24 1.00 0.99 0.99 0.99 1.02 1.06 1.11 1.07 1.05 1.02 0.93 0.84 0.78 0.78 0.84 0.87 0.85 0.82 0.81 0.81 0.79 0.77 0.79 0.80 0.85 0.86 0.92 0.92 0.85 0.80 0.74